Tiempo cada hora Cayenne

Hoy, 21 Enero, Jueves

Tiempo Temperatura Precipitaciones Viento Presión Humedad
00:00 +25°C° 2 mm 3 mps 757 mmHg 96%
01:00 +25°C° 3.2 mm 3 mps 756 mmHg 96%
02:00 +25°C° 3.2 mm 3 mps 756 mmHg 97%
03:00 +25°C° 3.2 mm 3 mps 756 mmHg 97%
04:00 +25°C° 3.1 mm 3 mps 756 mmHg 97%
05:00 +25°C° 3.1 mm 3 mps 756 mmHg 97%
06:00 +25°C° 3.1 mm 3 mps 756 mmHg 97%
07:00 +26°C° 1.8 mm 3 mps 757 mmHg 95%
08:00 +26°C° 1.8 mm 3 mps 757 mmHg 93%
09:00 +27°C° 1.8 mm 3 mps 758 mmHg 91%
10:00 +28°C° 0.9 mm 3 mps 758 mmHg 90%
11:00 +28°C° 0.9 mm 3 mps 758 mmHg 89%
12:00 +29°C° 0.9 mm 3 mps 758 mmHg 88%
13:00 +29°C° 0.6 mm 3 mps 758 mmHg 87%
14:00 +29°C° 0.6 mm 3 mps 757 mmHg 87%
15:00 +29°C° 0.6 mm 3 mps 756 mmHg 86%
16:00 +28°C° 0.6 mm 4 mps 756 mmHg 88%
17:00 +27°C° 0.6 mm 4 mps 756 mmHg 90%
18:00 +26°C° 0.6 mm 4 mps 756 mmHg 92%
19:00 +26°C° 0.8 mm 4 mps 757 mmHg 93%
20:00 +26°C° 0.8 mm 4 mps 757 mmHg 94%
21:00 +25°C° 0.8 mm 4 mps 758 mmHg 95%
22:00 +25°C° 0.9 mm 4 mps 758 mmHg 95%
23:00 +25°C° 0.9 mm 4 mps 758 mmHg 95%

Mañana, 22 Enero, Viernes

Tiempo Temperatura Precipitaciones Viento Presión Humedad
00:00 +25°C° 0.9 mm 4 mps 758 mmHg 95%
01:00 +25°C° 0.4 mm 4 mps 757 mmHg 95%
02:00 +25°C° 0.4 mm 4 mps 757 mmHg 95%
03:00 +25°C° 0.4 mm 5 mps 756 mmHg 95%
04:00 +25°C° 0.6 mm 4 mps 757 mmHg 95%
05:00 +25°C° 0.6 mm 4 mps 757 mmHg 95%
06:00 +25°C° 0.6 mm 3 mps 757 mmHg 95%
07:00 +26°C° 0.1 mm 4 mps 757 mmHg 94%
08:00 +26°C° 0.1 mm 4 mps 758 mmHg 94%
09:00 +27°C° 0.1 mm 4 mps 758 mmHg 93%
10:00 +28°C° 0.5 mm 4 mps 758 mmHg 89%
11:00 +29°C° 0.5 mm 4 mps 758 mmHg 85%
12:00 +30°C° 0.5 mm 4 mps 758 mmHg 82%
13:00 +29°C° 1.6 mm 5 mps 757 mmHg 84%
14:00 +29°C° 1.6 mm 5 mps 757 mmHg 87%
15:00 +28°C° 1.6 mm 5 mps 756 mmHg 90%
16:00 +28°C° 0.7 mm 5 mps 756 mmHg 91%
17:00 +27°C° 0.7 mm 5 mps 756 mmHg 92%
18:00 +27°C° 0.7 mm 5 mps 756 mmHg 93%
19:00 +26°C° 0.6 mm 5 mps 757 mmHg 93%
20:00 +26°C° 0.6 mm 5 mps 757 mmHg 94%
21:00 +26°C° 0.6 mm 5 mps 758 mmHg 95%
22:00 +26°C° 0.6 mm 5 mps 758 mmHg 95%
23:00 +26°C° 0.6 mm 5 mps 758 mmHg 95%

Pasado mañana, 23 Enero, Sábado

Tiempo Temperatura Precipitaciones Viento Presión Humedad
00:00 +26°C° 0.6 mm 5 mps 758 mmHg 95%
01:00 +25°C° 0.6 mm 5 mps 757 mmHg 95%
02:00 +25°C° 0.6 mm 5 mps 757 mmHg 96%
03:00 +25°C° 0.6 mm 4 mps 757 mmHg 96%
04:00 +25°C° 1 mm 4 mps 757 mmHg 96%
05:00 +25°C° 1 mm 4 mps 757 mmHg 96%
06:00 +25°C° 1 mm 4 mps 757 mmHg 96%
07:00 +26°C° 1.1 mm 4 mps 757 mmHg 95%
08:00 +26°C° 1.1 mm 5 mps 758 mmHg 94%
09:00 +27°C° 1.1 mm 5 mps 758 mmHg 92%
10:00 +28°C° 1.1 mm 5 mps 758 mmHg 92%
11:00 +28°C° 1.1 mm 5 mps 758 mmHg 91%
12:00 +28°C° 1.1 mm 5 mps 758 mmHg 90%
13:00 +28°C° 1.3 mm 5 mps 758 mmHg 90%
14:00 +28°C° 1.3 mm 5 mps 757 mmHg 91%
15:00 +28°C° 1.3 mm 5 mps 756 mmHg 91%
16:00 +28°C° 0.4 mm 5 mps 756 mmHg 92%
17:00 +27°C° 0.4 mm 5 mps 756 mmHg 92%
18:00 +27°C° 0.4 mm 5 mps 756 mmHg 92%
19:00 +27°C° 0.1 mm 5 mps 756 mmHg 93%
20:00 +26°C° 0.1 mm 5 mps 757 mmHg 93%
21:00 +26°C° 0.1 mm 5 mps 757 mmHg 93%
22:00 +26°C° 0.2 mm 5 mps 757 mmHg 94%
23:00 +26°C° 0.2 mm 5 mps 757 mmHg 94%

24 Enero, Domingo

Tiempo Temperatura Precipitaciones Viento Presión Humedad
00:00 +26°C° 0.2 mm 5 mps 757 mmHg 94%
01:00 +26°C° 0.7 mm 5 mps 757 mmHg 95%
02:00 +25°C° 0.7 mm 5 mps 757 mmHg 95%
03:00 +25°C° 0.7 mm 4 mps 756 mmHg 95%
04:00 +25°C° 0.7 mm 4 mps 756 mmHg 95%
05:00 +25°C° 0.7 mm 4 mps 756 mmHg 95%
06:00 +25°C° 0.7 mm 4 mps 756 mmHg 95%
07:00 +26°C° 0.2 mm 4 mps 757 mmHg 94%
08:00 +27°C° 0.2 mm 4 mps 757 mmHg 92%
09:00 +28°C° 0.2 mm 4 mps 758 mmHg 90%
10:00 +28°C° 0.2 mm 5 mps 758 mmHg 86%
11:00 +29°C° 0.2 mm 5 mps 758 mmHg 81%
12:00 +30°C° 0.2 mm 5 mps 757 mmHg 77%
13:00 +30°C° 0.3 mm 5 mps 757 mmHg 77%
14:00 +30°C° 0.3 mm 5 mps 756 mmHg 76%
15:00 +30°C° 0.3 mm 5 mps 755 mmHg 76%
16:00 +29°C° 0.2 mm 5 mps 755 mmHg 79%
17:00 +28°C° 0.2 mm 5 mps 755 mmHg 83%
18:00 +27°C° 0.2 mm 5 mps 755 mmHg 86%
19:00 +27°C° 0.1 mm 5 mps 755 mmHg 89%
20:00 +26°C° 0.1 mm 5 mps 756 mmHg 91%
21:00 +26°C° 0.1 mm 5 mps 756 mmHg 93%
22:00 +26°C° 0.1 mm 5 mps 756 mmHg 93%
23:00 +26°C° 0.1 mm 5 mps 757 mmHg 92%

25 Enero, Lunes

Tiempo Temperatura Precipitaciones Viento Presión Humedad
00:00 +26°C° 0.1 mm 4 mps 757 mmHg 92%
01:00 +26°C° 0.2 mm 4 mps 756 mmHg 92%
02:00 +26°C° 0.2 mm 4 mps 756 mmHg 92%
03:00 +26°C° 0.2 mm 4 mps 756 mmHg 93%
04:00 +26°C° 0.2 mm 4 mps 756 mmHg 93%
05:00 +25°C° 0.2 mm 4 mps 756 mmHg 93%
06:00 +25°C° 0.2 mm 4 mps 756 mmHg 93%
07:00 +26°C° 0.2 mm 4 mps 756 mmHg 92%
08:00 +27°C° 0.2 mm 4 mps 757 mmHg 90%
09:00 +27°C° 0.2 mm 4 mps 757 mmHg 89%
10:00 +28°C° 0.5 mm 4 mps 757 mmHg 86%
11:00 +29°C° 0.5 mm 4 mps 757 mmHg 83%
12:00 +29°C° 0.5 mm 4 mps 757 mmHg 79%
13:00 +29°C° 0.8 mm 5 mps 756 mmHg 82%
14:00 +28°C° 0.8 mm 5 mps 756 mmHg 85%
15:00 +28°C° 0.8 mm 5 mps 755 mmHg 88%
16:00 +27°C° 0.5 mm 5 mps 755 mmHg 89%
17:00 +27°C° 0.5 mm 6 mps 755 mmHg 89%
18:00 +26°C° 0.5 mm 6 mps 755 mmHg 90%
19:00 +26°C° 0.1 mm 6 mps 755 mmHg 90%
20:00 +26°C° 0.1 mm 5 mps 756 mmHg 90%
21:00 +26°C° 0.1 mm 5 mps 756 mmHg 90%
22:00 +26°C° 0.1 mm 5 mps 756 mmHg 91%
23:00 +26°C° 0.1 mm 5 mps 756 mmHg 91%

26 Enero, Martes

Tiempo Temperatura Precipitaciones Viento Presión Humedad
00:00 +26°C° 0.1 mm 5 mps 757 mmHg 92%
01:00 +26°C° 0.1 mm 5 mps 756 mmHg 92%
02:00 +25°C° 0.1 mm 5 mps 756 mmHg 92%
03:00 +25°C° 0.1 mm 5 mps 756 mmHg 92%
04:00 +25°C° 0.1 mm 5 mps 756 mmHg 91%
05:00 +25°C° 0.1 mm 5 mps 756 mmHg 90%
06:00 +26°C° 0.1 mm 4 mps 756 mmHg 90%
07:00 +26°C° 0.1 mm 4 mps 756 mmHg 89%
08:00 +27°C° 0.1 mm 4 mps 757 mmHg 88%
09:00 +27°C° 0.1 mm 4 mps 758 mmHg 87%
10:00 +28°C° 0.2 mm 4 mps 758 mmHg 85%
11:00 +28°C° 0.2 mm 4 mps 758 mmHg 82%
12:00 +29°C° 0.2 mm 4 mps 758 mmHg 80%
13:00 +29°C° 0.5 mm 4 mps 757 mmHg 81%
14:00 +29°C° 0.5 mm 5 mps 756 mmHg 83%
15:00 +29°C° 0.5 mm 5 mps 756 mmHg 85%
16:00 +28°C° 0.2 mm 5 mps 756 mmHg 86%
17:00 +27°C° 0.2 mm 5 mps 756 mmHg 86%
18:00 +27°C° 0.2 mm 5 mps 756 mmHg 87%
19:00 +26°C° 0 mm 5 mps 756 mmHg 88%
20:00 +26°C° 0 mm 5 mps 757 mmHg 88%
21:00 +26°C° 0 mm 5 mps 757 mmHg 89%
22:00 +26°C° 0 mm 5 mps 757 mmHg 89%
23:00 +25°C° 0 mm 4 mps 757 mmHg 89%
Mostrar más